Lapse_Rate
6.7 6.6 6.5 6.5 6.6 6.6 6.5 6.4 6.2 6.8 7.4 7.9 8.8 9.2 9.3 9.1 9.4 9.5 9.3 9.5 9.4 9.5 9.4 9.4 9.3 9.5 9.4 9.4 9.3 9.3 8.1 8.1 7.8 8.2 6.1 4.2 4.0 3.8 3.1 2.9 2.9 2.6 3.8
6.2 6.0 5.7 5.5 5.5 5.7 5.9 6.3 6.5 6.3 6.4 6.8 7.3 7.6 8.1 8.8 9.3 9.1 9.0 9.2 9.1 9.2 9.2 9.2 9.2 9.5 9.3 9.3 9.3 9.2 9.1 9.0 7.9 8.1 6.6 4.0 3.7 3.4 3.7 1.9 2.0 1.7 3.4
5.6 5.3 5.3 5.1 5.0 5.1 5.3 5.4 6.2 6.8 6.8 6.7 6.9 6.9 6.7 7.0 7.4 7.4 8.4 9.0 9.1 9.3 9.3 9.3 9.2 9.2 9.1 9.2 9.2 9.0 9.1 9.3 8.7 8.1 4.4 3.0 2.9 3.2 4.1 4.8 5.3 4.8 5.7
5.4 5.4 5.8 6.7 7.0 6.8 6.6 6.5 6.3 6.3 6.8 7.0 7.2 7.2 7.1 7.3 7.3 6.6 6.9 8.0 9.1 9.3 9.2 9.2 9.2 9.1 9.1 8.9 8.9 8.9 9.0 9.0 8.4 5.5 3.8 3.7 2.9 3.8 3.7 3.1 2.0 3.3 3.7
5.9 6.4 6.7 7.1 6.7 5.9 6.0 6.0 5.3 5.9 6.3 6.7 6.9 7.2 7.5 7.6 7.7 7.1 7.2 7.4 8.0 8.3 8.9 9.1 9.0 9.1 9.2 9.4 8.9 7.9 8.2 7.3 5.0 4.2 3.1 3.1 3.0 3.1 3.3 2.9 2.4 2.2 2.4
6.7 6.7 6.8 6.3 6.4 6.4 6.8 6.7 6.4 5.9 6.1 6.0 6.0 6.7 7.3 7.5 7.8 7.8 7.3 7.4 8.0 8.6 8.5 8.9 9.0 8.9 8.8 9.1 8.9 8.5 7.5 4.8 3.8 3.6 3.7 3.7 3.4 3.8 4.0 3.3 4.6 4.0 5.1
6.6 6.5 6.4 6.1 6.0 6.3 6.7 6.6 6.5 6.5 6.4 5.7 5.6 5.9 6.5 7.0 7.7 8.0 8.2 6.8 7.0 7.1 7.1 7.2 7.2 8.4 8.6 8.7 8.4 8.1 7.0 6.7 5.7 4.1 2.9 3.0 3.2 3.2 3.5 3.8 3.9 3.9 5.1
6.7 6.6 6.5 6.3 5.9 5.6 5.6 6.1 6.7 6.3 5.9 5.5 5.4 5.1 5.7 6.2 7.2 7.6 7.9 7.5 6.6 6.2 6.4 6.2 6.5 6.9 7.5 4.0 2.8 1.9 2.4 3.1 3.0 2.4 2.1 2.5 3.1 2.9 1.5 1.4 2.0 3.2 4.3
6.9 6.6 6.6 7.1 6.3 6.0 5.9 5.8 5.6 5.5 6.4 6.2 5.4 5.5 5.5 5.7 6.9 7.2 6.8 6.6 6.6 6.2 6.3 7.1 6.9 6.5 5.5 4.1 3.0 2.7 3.7 4.8 5.9 5.4 4.8 4.8 4.4 3.5 3.1 3.8 4.8 5.5 6.4
7.3 7.2 7.0 7.1 6.6 6.5 6.6 6.4 6.1 6.1 5.3 5.0 6.7 6.2 6.7 5.9 6.8 6.1 5.0 4.5 4.9 5.4 5.5 5.8 6.3 6.1 5.9 4.4 3.4 4.2 6.0 6.1 6.0 5.7 5.9 6.1 5.8 6.0 5.6 5.7 7.5 8.2 8.0
7.1 6.8 6.7 6.4 6.9 6.9 6.8 6.7 6.4 6.1 5.4 5.2 5.0 4.4 6.9 6.8 6.8 6.6 5.7 4.0 4.1 4.7 4.9 5.3 6.6 7.2 5.2 3.0 3.8 4.5 4.9 4.4 4.6 4.2 5.4 6.2 7.1 8.2 9.5 9.8 9.9 9.5 9.1
7.2 7.0 7.5 7.7 7.6 7.7 7.5 7.3 7.0 6.8 5.9 5.9 6.0 5.6 4.9 6.0 7.8 7.9 7.4 6.9 6.5 6.1 6.5 6.7 6.8 5.5 5.7 6.0 6.5 6.6 6.7 7.9 8.2 8.8 9.2 9.1 9.2 9.3 9.2 9.1 8.3 8.1 8.6
8.3 8.6 8.7 8.7 9.1 9.1 8.4 8.7 9.1 9.0 8.7 7.9 6.8 6.2 6.4 6.4 6.1 8.3 9.0 8.9 8.2 7.5 7.9 8.6 8.4 8.5 8.1 8.8 9.2 8.8 7.9 8.3 9.1 9.1 9.2 9.2 9.4 9.6 9.7 9.0 8.0 7.4 7.6
7.6 7.9 8.9 8.6 8.9 9.1 9.5 9.0 8.1 8.9 9.2 9.1 9.1 8.8 8.6 8.6 8.3 8.0 7.2 6.5 6.4 6.9 6.8 7.4 7.8 7.8 7.4 7.5 7.3 7.1 7.6 8.9 9.3 9.2 9.2 9.4 9.7 9.6 9.4 9.6 9.3 9.3 8.8
6.4 5.0 8.0 8.9 9.0 9.0 9.0 9.1 9.3 9.5 9.0 8.9 9.2 9.1 8.2 8.5 9.6 8.8 8.7 9.0 9.0 9.7 9.0 9.2 9.2 9.0 8.7 8.9 9.4 9.7 9.6 9.6 9.4 9.5 9.4 9.3 9.4 9.4 9.3 9.6 9.4 9.3 8.9
5.3 4.0 4.3 7.1 8.7 8.9 8.9 8.6 9.0 8.8 8.4 6.9 6.7 7.6 7.7 6.5 5.5 5.2 5.2 5.4 6.2 6.2 6.9 8.2 9.0 9.1 9.1 9.0 9.0 9.1 9.3 9.3 9.4 9.5 9.5 9.5 9.3 9.3 9.3 9.5 9.5 9.3 9.0
4.8 4.3 4.5 4.2 5.0 5.7 5.5 6.2 7.1 7.1 6.0 5.9 5.0 4.6 4.6 4.7 4.5 4.3 4.2 4.7 5.2 4.6 6.7 8.4 8.8 8.9 9.0 9.1 9.1 9.1 9.2 9.4 9.7 9.5 9.5 9.5 9.5 9.4 9.3 9.2 9.3 9.3 9.1
5.3 3.6 3.7 3.6 3.9 4.5 4.8 5.0 4.8 5.3 6.2 5.5 4.5 4.4 4.3 4.3 4.5 4.6 4.7 4.9 4.9 5.6 7.2 8.3 8.8 8.9 9.0 9.1 9.2 9.2 9.4 9.4 9.4 9.5 9.5 9.5 9.5 9.3 9.2 9.1 9.2 9.0 9.0
4.9 4.2 3.7 3.5 3.1 3.8 4.7 4.9 5.3 5.7 6.2 7.3 6.7 5.3 5.1 4.4 4.2 4.2 3.7 4.5 5.6 6.7 6.8 7.4 7.8 7.6 7.6 7.5 7.2 7.1 7.4 7.9 8.7 8.9 9.3 9.4 9.4 9.4 9.2 9.2 9.1 9.0 9.0
4.7 3.2 2.8 3.4 3.2 3.6 4.0 4.6 5.1 5.4 5.4 5.7 6.2 6.9 6.4 5.1 4.8 3.8 4.2 5.1 5.8 6.1 6.2 6.3 6.4 6.4 6.3 6.6 6.9 7.2 7.7 8.1 8.3 8.6 9.0 9.1 9.2 9.3 9.2 9.2 9.2 9.1 9.1
4.5 4.0 2.7 3.1 2.7 3.0 3.4 4.0 4.6 4.8 4.5 4.0 3.9 4.2 4.6 4.5 4.6 4.0 4.4 4.7 5.3 5.5 5.7 5.7 5.5 5.7 6.0 6.3 6.7 6.8 6.9 7.1 7.4 7.6 7.8 8.1 8.5 8.8 9.4 9.4 9.3 9.3 9.3
4.4 3.9 3.0 2.7 3.1 2.9 3.3 3.9 4.5 4.6 4.4 4.3 4.4 4.1 4.3 4.0 4.2 4.4 4.6 4.6 4.9 5.1 5.1 5.0 5.0 5.0 5.0 5.2 5.7 6.1 6.2 6.4 6.6 6.6 6.8 6.9 7.4 7.3 7.9 8.0 8.8 9.3 9.2
4.3 4.2 3.5 2.7 2.9 3.3 3.5 4.0 4.4 4.4 4.2 4.2 4.4 4.5 4.1 3.8 4.0 4.1 4.0 4.4 4.5 4.3 4.4 4.4 4.3 4.3 4.1 4.0 4.0 4.3 4.7 5.2 5.5 5.7 5.7 5.8 6.1 6.3 6.7 7.6 8.4 8.6 7.7
4.0 4.1 3.8 3.2 2.9 3.5 4.0 3.9 3.4 3.3 4.2 4.0 3.9 3.9 3.8 3.6 3.6 3.7 3.9 4.1 4.0 3.7 3.6 3.5 3.8 3.8 3.5 3.2 3.2 2.9 3.2 3.7 4.2 4.3 4.6 4.9 5.2 5.4 5.6 5.6 6.1 7.0 6.2
3.8 3.8 3.7 3.6 3.3 3.6 4.1 4.1 4.2 4.2 4.0 3.9 3.7 3.6 3.6 3.6 3.5 3.3 3.6 3.4 3.3 3.0 2.9 2.8 3.0 3.0 3.0 2.9 2.5 2.0 0.6 1.0 2.3 3.3 3.9 4.1 4.5 4.6 4.8 4.9 5.1 5.3 5.4
3.6 3.5 3.5 3.6 3.5 3.7 4.2 4.0 4.0 4.0 3.7 3.6 3.8 3.7 3.6 3.4 3.3 3.1 3.0 2.8 2.4 2.3 2.2 2.3 2.7 2.7 2.6 2.1 1.5 1.1 0.5 0.5 1.5 2.3 3.6 3.9 4.1 4.3 4.4 4.5 4.5 4.5 4.8
Wind_Speed
21 21 20 18 19 17 15 15 15 15 14 15 16 14 14 16 16 14 16 15 15 16 16 15 15 15 11 10 9 11 8 11 11 9 2 7 8 8 3 8 13 14 14
22 20 20 19 18 16 15 16 15 14 14 13 13 13 14 15 15 13 14 14 16 16 15 15 15 11 14 13 11 14 12 12 8 12 0 1 5 7 3 14 11 13 14
22 21 19 18 16 16 15 15 15 14 13 13 13 12 12 12 11 14 13 13 15 16 14 15 14 14 14 12 12 11 10 11 10 7 2 2 3 4 8 11 13 17 16
22 21 19 17 16 15 14 14 14 13 12 11 12 11 11 11 12 12 11 13 13 12 11 13 13 12 14 13 12 13 12 11 9 5 6 3 4 5 5 11 12 9 10
21 18 19 17 17 17 17 16 14 11 9 9 10 10 8 8 8 10 12 11 11 11 10 11 12 15 21 17 9 10 13 6 7 7 7 4 3 3 3 5 12 11 11
18 18 18 19 18 18 19 19 20 8 4 7 8 8 9 7 12 18 14 9 11 12 10 11 11 15 17 22 21 24 11 12 10 7 7 9 9 7 5 9 8 11 8
17 18 18 19 19 19 19 18 19 18 8 3 6 7 7 8 13 15 14 9 9 8 9 7 8 9 12 11 16 16 14 11 13 11 13 10 13 5 8 12 10 10 8
19 18 18 19 19 20 20 19 18 17 17 15 7 7 5 5 9 10 12 8 8 10 9 9 8 8 9 10 14 16 16 14 14 12 15 14 12 8 10 9 11 10 8
19 19 18 18 18 19 19 19 18 17 17 19 20 21 4 1 2 6 4 2 5 8 8 8 6 4 23 26 18 18 16 14 24 31 28 26 25 24 17 10 8 9 8
20 19 18 18 18 18 18 18 17 16 17 15 19 20 28 19 28 26 19 11 12 12 15 8 16 16 28 30 19 17 16 12 14 16 15 19 18 17 20 11 7 9 10
17 18 18 18 17 17 16 16 16 16 18 18 20 19 20 22 23 31 28 14 11 14 15 15 15 32 34 36 29 16 18 17 21 14 13 11 11 10 8 7 6 4 6
17 17 19 19 15 14 16 14 16 15 17 18 18 16 15 18 31 33 35 31 26 17 16 14 19 36 36 33 24 30 29 21 11 12 12 12 11 10 9 10 14 15 15
15 17 18 20 19 18 18 17 13 15 13 12 12 12 12 12 14 32 35 35 34 20 16 28 36 34 33 26 29 27 20 11 11 11 11 11 11 10 12 13 17 21 20
16 17 15 15 17 19 14 13 14 13 12 12 12 12 11 11 10 10 12 14 24 19 24 20 25 26 27 22 17 15 12 11 12 12 12 11 10 9 10 9 10 9 10
14 14 14 11 13 14 15 15 14 17 16 12 13 13 13 14 15 20 17 13 13 17 16 13 13 13 13 13 12 12 11 11 11 11 11 11 10 10 9 8 8 8 9
14 11 11 10 10 10 10 12 30 28 30 30 27 19 15 24 27 28 29 29 26 25 15 13 13 12 13 13 12 12 12 13 11 11 10 10 10 9 9 9 8 8 8
13 12 9 11 10 10 10 10 10 15 30 29 28 28 28 25 27 28 30 29 27 23 13 13 13 12 12 12 11 11 11 10 11 10 10 9 9 9 9 8 8 8 8
12 15 9 9 9 9 9 10 9 10 11 12 24 22 26 26 25 24 23 19 15 16 12 12 12 12 11 11 10 10 10 9 10 9 9 9 9 8 8 8 8 8 7
11 9 8 8 8 9 9 9 10 11 11 11 10 15 18 24 25 25 25 13 12 12 12 12 11 11 10 10 10 10 11 10 9 9 9 8 8 8 9 9 9 11 10
9 15 11 8 8 8 9 9 10 10 11 11 11 10 9 13 12 13 13 12 11 11 10 11 10 10 10 9 9 9 9 9 9 8 8 8 8 8 8 8 8 8 8
7 7 11 8 8 8 8 9 9 10 10 11 11 12 16 11 11 12 11 11 10 10 10 10 9 9 9 8 8 8 9 8 8 8 8 8 7 7 7 7 7 8 8
6 6 6 7 7 8 8 8 9 9 10 10 10 10 15 11 11 11 11 10 10 10 11 10 8 8 9 8 8 8 8 8 8 7 7 7 7 7 7 7 8 8 7
6 6 6 6 6 8 8 9 8 9 9 10 9 8 9 10 10 10 10 9 8 11 14 13 11 9 13 14 13 11 7 8 8 8 7 7 7 7 7 7 8 8 8
5 6 5 6 6 6 8 8 8 9 9 9 8 8 9 9 9 10 9 8 11 12 13 14 15 14 13 13 12 12 11 10 11 11 11 7 7 8 8 8 8 10 9
4 4 5 4 5 6 7 7 7 7 7 7 7 7 8 8 8 8 7 10 11 11 13 12 13 14 16 15 14 14 15 16 13 13 13 13 11 11 9 8 9 9 9
4 4 4 4 4 4 5 6 7 6 7 6 6 6 7 6 6 6 7 9 9 11 12 13 14 15 14 15 15 15 17 18 16 16 15 14 9 8 8 9 11 8 10
Wind_Direction
311 306 301 297 292 286 279 272 266 268 266 266 265 261 255 251 247 249 250 243 245 245 239 242 243 243 246 248 243 251 254 258 262 273 291 335 2 4 357 94 97 88 105
317 312 306 300 297 290 283 279 266 259 255 249 249 249 250 252 240 243 243 247 241 238 241 239 240 241 244 250 257 261 259 254 262 272 104 66 22 348 5 92 92 101 100
322 320 317 311 304 294 285 279 275 267 252 247 245 234 236 233 236 233 240 241 242 241 235 236 238 240 249 252 253 256 258 250 241 239 96 30 360 12 56 83 83 87 90
327 325 323 332 336 331 309 287 269 262 257 246 242 236 232 226 218 220 223 242 238 237 243 248 246 244 245 251 248 248 246 238 240 157 123 72 64 41 68 99 79 65 79
330 333 338 348 346 343 330 320 293 238 239 249 243 244 223 224 223 211 216 222 230 243 245 244 240 239 243 242 238 241 237 215 166 156 126 120 71 68 74 87 101 89 58
345 348 354 353 352 355 358 8 18 48 216 227 234 238 222 224 233 221 211 218 223 226 230 235 238 238 235 238 242 247 221 154 161 141 139 122 103 106 107 100 104 102 97
352 355 1 3 3 2 6 16 22 26 22 291 234 220 223 218 229 239 228 197 211 222 230 236 238 242 240 240 254 244 200 162 136 138 127 117 112 95 93 88 76 84 87
4 6 6 9 12 11 12 13 22 25 26 25 33 198 201 215 230 237 229 218 198 208 211 220 232 243 235 96 90 80 73 70 89 99 98 102 96 93 92 100 99 91 82
7 9 11 13 14 13 15 18 21 19 25 33 39 49 125 82 351 66 113 101 212 213 204 216 221 185 127 113 96 96 96 108 111 108 108 107 104 103 108 109 99 109 105
7 11 13 16 20 19 20 22 24 28 37 30 45 52 56 55 60 67 71 65 67 68 63 105 107 109 116 105 104 105 97 93 94 88 85 83 86 90 87 84 107 116 121
6 13 18 21 23 23 23 27 29 33 37 39 44 35 54 58 61 65 67 67 68 73 69 69 75 90 89 87 86 85 91 92 84 82 84 86 90 97 106 109 106 102 98
10 16 21 24 26 25 28 29 33 36 41 41 42 41 36 37 59 67 71 73 72 77 81 86 90 88 88 90 92 94 95 97 101 98 93 87 86 87 88 87 85 77 72
15 24 25 26 28 29 28 31 34 39 43 49 47 46 44 41 44 55 68 70 70 73 78 82 79 79 82 83 88 89 85 88 90 89 87 88 90 98 99 93 85 82 75
13 20 24 31 33 35 35 34 34 33 38 42 49 53 54 55 59 62 66 68 67 73 74 79 82 83 82 84 77 69 66 70 78 84 89 90 89 87 83 82 83 82 79
16 19 19 31 38 41 42 41 42 45 43 47 50 54 59 60 60 66 71 75 75 79 79 77 74 73 74 73 71 70 72 74 74 76 78 79 77 75 72 75 83 87 82
16 20 19 26 31 40 48 53 49 53 54 57 59 63 67 72 72 72 72 73 76 76 71 69 68 68 68 69 68 68 65 66 66 69 70 72 74 78 80 77 77 77 80
17 16 26 32 34 37 41 44 50 51 56 56 61 66 68 71 70 72 71 69 66 67 63 66 68 69 70 69 69 69 69 68 70 73 73 76 79 81 79 79 79 79 80
16 26 28 32 35 39 42 49 54 52 51 51 53 62 63 65 65 66 69 66 61 58 61 66 67 67 67 67 68 69 69 67 67 68 67 67 70 73 74 74 73 79 82
16 20 25 34 40 41 48 55 59 61 61 58 63 61 61 66 65 62 61 59 61 60 61 63 64 65 65 65 65 64 62 61 63 66 66 66 66 68 72 77 78 73 75
16 26 31 34 41 48 50 56 61 62 63 60 53 50 56 61 58 55 55 59 59 60 61 63 63 64 63 62 63 64 65 63 64 64 67 66 66 69 71 72 73 75 75
10 20 28 42 45 49 54 58 62 66 69 67 60 48 54 68 65 63 61 57 57 59 60 61 61 59 57 58 60 63 64 63 61 65 69 69 71 77 75 76 76 71 73
11 21 34 40 49 54 59 63 65 69 72 72 66 52 58 66 67 67 64 62 59 59 58 60 59 56 52 52 51 57 61 62 62 63 69 69 71 72 74 71 71 73 72
24 32 44 52 56 66 68 66 69 71 73 71 66 61 60 67 69 68 66 62 60 58 56 56 56 56 54 53 51 49 53 56 54 63 68 73 71 72 71 74 73 74 71
30 37 47 56 56 68 74 78 76 62 73 75 71 68 68 70 71 69 67 65 63 61 59 58 57 57 52 50 48 46 47 54 64 63 68 72 75 74 74 72 71 74 80
35 43 50 58 68 78 87 83 78 74 74 75 76 74 73 72 72 69 66 66 65 63 59 58 59 57 56 57 55 54 52 59 64 70 72 73 74 71 71 70 70 72 71
42 51 60 70 80 80 90 93 88 83 80 78 78 77 77 75 73 70 67 69 68 66 65 63 63 61 61 60 60 60 56 56 60 62 69 70 70 69 68 68 66 64 67